Location: ?????????
(53.2086°N, 54.0693°E)
Time: 19:30:30
(UTC+00:00)

H-2A R/B - Pass Details

Date: 08 December 2019
Orbit: 501 x 541 km, 97.3° (Epoch: 17 January)

Event Time Altitude Azimuth Distance (km) Brightness Sun altitude
Rises 13:47:13 0° 170° (S) 2,606 6.4 -14.0°
Reaches altitude 10° 13:49:19 10° 172° (S) 1,721 5.5 -14.3°
Maximum altitude 13:53:00 72° 257° (WSW) 537 2.9 -14.8°
Drops below altitude 10° 13:56:43 10° 343° (NNW) 1,725 5.3 -15.3°
Sets 13:58:49 0° 345° (NNW) 2,614 6.3 -15.6°
